User: anonymous   Login
Location: Unspecified
(0.0000°N, 0.0000°E)
Time: 22:43:33
(UTC+02:00)
Language:

Ariane H10 - Orbit

View from above orbital plane
View from above orbital plane
View from above satellite
View from above satellite

Ground track
Ground track

The orbit data is extracted from the following two-line orbital elements,

1 21727U 91067B   15106.88753211  .00000347  00000-0  13805-2 0  9993
2 21727 004.3095 300.2716 7182250 223.3706 351.0640 02.31562260159561
Epoch (UTC): 16 April 2015 21:18:02
Eccentricity: 0.7182250
inclination: 4.3095°
perigee height: 422 km
apogee height: 35088 km
right ascension of ascending node: 300.2716°
argument of perigee: 223.3706°
revolutions per day: 2.31562260
mean anomaly at epoch: 351.0640°
orbit number at epoch: 15956

The dashed part of the orbit path shows where the satellite is in the earth's shadow,  

DLR